Weather History for KGCC - January, 2013

Change the Weather History Date:

Monday, January 28, 2013

  Actual Average Record
Temperature  
Mean Temperature 24 °F 26 °F  
Max Temperature 30 °F 37 °F - ()
Min Temperature 18 °F 15 °F - ()
Degree Days  
Heating Degree Days 41 39  
Month to date heating degree days 1095 1097  
Since 1 July heating degree days 3935 4238  
Cooling Degree Days 0 0  
Month to date cooling degree days 0 0  
Year to date cooling degree days 0 0  
Moisture  
Dew Point 25 °F    
Average Humidity 92    
Maximum Humidity 100    
Minimum Humidity 84    
Precipitation  
Precipitation 0.04 in 0.02 in - ()
Month to date precipitation 0.19 0.34  
Year to date precipitation 0.19 0.34  
Sea Level Pressure  
Sea Level Pressure 29.78 in    
Wind  
Wind Speed 8 mph (NNW)    
Max Wind Speed 15 mph    
Max Gust Speed 18 mph    
Visibility 7 miles    
Events Snow    
T = Trace of Precipitation, MM = Missing Value Source: NWS Daily Summary

Daily Weather History Graph

Daily Weather History Graph

Search for Another Location

Airport or City:

Trip Planner

Search our weather history database for the weather conditions in past years. The results will help you decide how hot, cold, wet, or windy it might be!

Date:

Astronomy

Jan. 28, 2013 Rise Set
Actual Time 7:24 AM MST 5:06 PM MST
Civil Twilight 6:53 AM MST 5:37 PM MST
Nautical Twilight 6:18 AM MST 6:12 PM MST
Astronomical Twilight 5:43 AM MST 6:47 PM MST
Moon 7:10 PM MST (1/28) 7:45 AM MST (1/28)
Length of Visible Light 10h 44m
Length of Day
9h 42m
Full, 97% of the Moon is Illuminated
Jan 28
Full
Feb 3
Last Quarter
Feb 10
New
Feb 17
First Quarter
Feb 25
Full

Hourly Weather History & Observations

Time (MST) Temp. Windchill Dew Point Humidity Pressure Visibility Wind Dir Wind Speed Gust Speed Precip Events Conditions
12:51 AM 26.6 °F 18.2 °F 26.6 °F 100% 29.73 in 10.0 mi North 8.1 mph - 0.00 in   Overcast
12:53 AM 27.0 °F 18.7 °F 26.1 °F 96% 29.81 in 10.0 mi North 8.1 mph - 0.00 in   Overcast
1:30 AM 26.6 °F 20.0 °F 26.6 °F 100% 29.74 in 10.0 mi NE 5.8 mph - N/A   Overcast
1:53 AM 27.0 °F 19.5 °F 26.1 °F 96% 29.81 in 10.0 mi North 6.9 mph - N/A   Overcast
2:26 AM 26.6 °F 18.2 °F 26.6 °F 100% 29.74 in 10.0 mi North 8.1 mph - N/A   Overcast
2:50 AM 26.6 °F 18.2 °F 26.6 °F 100% 29.75 in 10.0 mi North 8.1 mph - N/A   Overcast
2:53 AM 27.0 °F 18.0 °F 26.1 °F 96% 29.83 in 10.0 mi North 9.2 mph - N/A   Overcast
3:28 AM 26.6 °F 18.2 °F 26.6 °F 100% 29.74 in 10.0 mi North 8.1 mph - N/A   Overcast
3:53 AM 27.0 °F 19.5 °F 25.0 °F 92% 29.84 in 10.0 mi North 6.9 mph - N/A   Overcast
3:57 AM 26.6 °F 19.1 °F 24.8 °F 93% 29.76 in 10.0 mi North 6.9 mph - N/A   Overcast
4:07 AM 26.6 °F 21.2 °F 26.6 °F 100% 29.76 in 6.0 mi North 4.6 mph - 0.00 in Snow Light Snow
4:53 AM 26.1 °F 20.5 °F 26.1 °F 100% 29.84 in 2.5 mi NNW 4.6 mph - 0.01 in Snow Light Snow
4:59 AM 26.6 °F 21.2 °F 26.6 °F 100% 29.75 in 3.0 mi NNW 4.6 mph - 0.00 in Snow Light Snow
5:18 AM 26.6 °F 21.2 °F 26.6 °F 100% 29.74 in 2.0 mi North 4.6 mph - 0.00 in Snow Light Snow
5:38 AM 26.6 °F 20.0 °F 26.6 °F 100% 29.73 in 7.0 mi North 5.8 mph - 0.00 in   Overcast
5:53 AM 26.1 °F 19.4 °F 26.1 °F 100% 29.82 in 10.0 mi NNW 5.8 mph - 0.00 in   Overcast
6:53 AM 26.1 °F 18.4 °F 26.1 °F 100% 29.83 in 10.0 mi NNW 6.9 mph - 0.00 in   Overcast
7:14 AM 26.6 °F 19.1 °F 26.6 °F 100% 29.75 in 2.0 mi NNW 6.9 mph - 0.00 in Snow Light Snow
7:23 AM 26.6 °F 18.2 °F 26.6 °F 100% 29.76 in 3.0 mi NW 8.1 mph - 0.00 in   Overcast
7:33 AM 26.6 °F 20.0 °F 26.6 °F 100% 29.77 in 2.5 mi NNW 5.8 mph - 0.00 in   Overcast
7:51 AM 26.6 °F 20.0 °F 24.8 °F 93% 29.76 in 4.0 mi NNW 5.8 mph - 0.00 in   Overcast
7:53 AM 26.1 °F 18.4 °F 25.0 °F 96% 29.85 in 4.0 mi NNW 6.9 mph - 0.00 in   Overcast
8:17 AM 26.6 °F 20.0 °F 26.6 °F 100% 29.75 in 4.0 mi NNW 5.8 mph - 0.00 in Snow Light Snow
8:53 AM 27.0 °F 17.3 °F 26.1 °F 96% 29.83 in 8.0 mi NNW 10.4 mph - 0.00 in   Overcast
9:13 AM 26.6 °F 16.8 °F 26.6 °F 100% 29.75 in 10.0 mi NNW 10.4 mph - N/A   Overcast
9:27 AM 26.6 °F 17.5 °F 24.8 °F 93% 29.75 in 8.0 mi NNW 9.2 mph - N/A   Overcast
9:53 AM 27.0 °F 18.0 °F 25.0 °F 92% 29.86 in 8.0 mi NW 9.2 mph - N/A   Overcast
10:32 AM 28.4 °F 21.2 °F 24.8 °F 86% 29.77 in 4.0 mi North 6.9 mph - 0.01 in Snow Light Snow
10:53 AM 28.0 °F 20.8 °F 24.1 °F 85% 29.87 in 4.0 mi North 6.9 mph - 0.01 in Snow Light Snow
11:53 AM 28.9 °F 21.1 °F 25.0 °F 85% 29.84 in 5.0 mi NNW 8.1 mph - 0.00 in   Overcast
12:03 PM 28.4 °F 21.2 °F 24.8 °F 86% 29.75 in 3.0 mi North 6.9 mph - 0.00 in Snow Light Snow
12:14 PM 30.2 °F 22.6 °F 24.8 °F 80% 29.75 in 5.0 mi North 8.1 mph - 0.00 in   Haze
12:53 PM 28.9 °F 21.1 °F 25.0 °F 85% 29.83 in 6.0 mi North 8.1 mph - 0.00 in   Overcast
1:53 PM 28.9 °F 20.4 °F 25.0 °F 85% 29.80 in 10.0 mi North 9.2 mph - N/A   Overcast
2:17 PM 28.4 °F 19.7 °F 24.8 °F 86% 29.72 in 2.0 mi NNW 9.2 mph - 0.01 in Snow Light Snow
2:33 PM 28.4 °F 20.4 °F 24.8 °F 86% 29.71 in 4.0 mi NNW 8.1 mph - 0.01 in Snow Light Snow
2:45 PM 28.4 °F 21.2 °F 24.8 °F 86% 29.72 in 6.0 mi NNW 6.9 mph - 0.01 in Snow Light Snow
2:53 PM 28.9 °F 21.9 °F 25.0 °F 85% 29.81 in 4.0 mi North 6.9 mph - 0.01 in Snow Light Snow
3:13 PM 28.4 °F 19.7 °F 24.8 °F 86% 29.72 in 2.5 mi NNW 9.2 mph - 0.01 in Snow Light Snow
3:25 PM 28.4 °F 21.2 °F 24.8 °F 86% 29.72 in 5.0 mi North 6.9 mph - 0.01 in Snow Light Snow
3:38 PM 28.4 °F 21.2 °F 24.8 °F 86% 29.71 in 9.0 mi North 6.9 mph - 0.01 in Snow Light Snow
3:46 PM 28.4 °F 20.4 °F 24.8 °F 86% 29.72 in 9.0 mi NNW 8.1 mph - 0.01 in   Overcast
3:53 PM 28.0 °F 21.7 °F 25.0 °F 88% 29.82 in 10.0 mi North 5.8 mph - 0.01 in   Overcast
4:53 PM 27.0 °F 18.7 °F 24.1 °F 89% 29.83 in 5.0 mi NNW 8.1 mph - 0.00 in Snow Light Snow
5:08 PM 26.6 °F 18.2 °F 24.8 °F 93% 29.74 in 9.0 mi NW 8.1 mph - 0.00 in   Overcast
5:16 PM 26.6 °F 20.0 °F 23.0 °F 86% 29.74 in 10.0 mi NW 5.8 mph - 0.00 in   Overcast
5:24 PM 26.6 °F 20.0 °F 24.8 °F 93% 29.75 in 10.0 mi NW 5.8 mph - 0.00 in   Overcast
5:53 PM 27.0 °F 17.3 °F 24.1 °F 89% 29.85 in 10.0 mi NW 10.4 mph - 0.00 in   Overcast
6:53 PM 25.0 °F 15.5 °F 23.0 °F 92% 29.83 in 9.0 mi WNW 9.2 mph - 0.00 in Snow Light Snow
7:53 PM 19.9 °F 14.9 °F 19.0 °F 96% 29.86 in 10.0 mi SW 3.5 mph - N/A   Mostly Cloudy
8:53 PM 21.9 °F 14.5 °F 19.9 °F 92% 29.83 in 10.0 mi South 5.8 mph - N/A   Overcast
9:53 PM 23.0 °F 17.0 °F 19.0 °F 85% 29.81 in 10.0 mi SW 4.6 mph - N/A   Overcast
10:53 PM 19.9 °F 7.9 °F 16.0 °F 85% 29.80 in 10.0 mi WSW 11.5 mph - N/A   Clear
11:53 PM 19.9 °F 6.2 °F 18.0 °F 92% 29.79 in 10.0 mi WSW 15.0 mph - N/A   Clear